Location: Franzen
(48.6167°N, 15.3833°E)
Time: 13:57:28
(UTC+00:00)

Cosmos 1844 Rocket - Pass Details

Date: 22 April 2021
Orbit: 825 x 844 km, 71.0° (Epoch: 16 May)

Event Time Altitude Azimuth Distance (km) Brightness Sun altitude
Exits shadow 22:31:00 51° 72° (ENE) 1,038 3.1 -28.6°
Drops below altitude 10° 22:35:29 10° 34° (NE) 2,438 5.7 -28.7°
Sets 22:37:57 0° 31° (NNE) 3,378 6.6 -28.7°
